GMS-T

Satellite information

Favourite Embed

Satellite Type and Status

PAYLOADIN ORBIT

Key statistics

Satellite GMS-T at a glance.

Uptime

1789

Days in orbit

Revolutions

≈ 13.2

Per day

Orbit

SSO

Sun Synchronous Orbit

Inclination

90.1

Latest

Satellite identification and parameters

Extended collection of information and parameters for GMS-T.

Object identification

Identified? True

Debris? False

Object name: GMS-T

International designator: 2021-004A

Object number (NORAD): 47346

Object ID (CCSDS): 47346

Country: GERMANY (GER)

Current information (Y/N): Y

RCS size: MEDIUM

Orbital parameters

Period: 109.368 minutes

Inclination: 90.1184 deg

SMA: 7575.672 km

Apoapsis: 1199.426 km

Periapsis: 1195.647 km

RAAN: 239.6739 deg

Eccentricy: 0.0002494

Argument of periapsis: 150.3989 deg

Mean anomaly: 209.7284 deg

Mean motion: 13.16652098 rev/day

Mean motion (dot): -0.00000019 rev/day2

B* drag term: -0.000071530001 1/REarth

Two-line elements (TLE)

Creation date: Dec. 14, 2025, 3:07 a.m.

Reference frame: TEME

Reference center: EARTH

Epoch: Dec. 13, 2025, 3:54 p.m. UTC

TLE line 0: 0 GMS-T

TLE line 1: 1 47346U 21004A 25347.66294002 -.00000019 00000-0 -71530-4 0 9993

TLE line 2: 2 47346 90.1184 239.6739 0002494 150.3989 209.7284 13.16652098235184

Live tracking on map

Real-time ground track for satellite GMS-T.

In-orbit conjunctions

There are no conjunctions computed for GMS-T, at the moment. Check back to stay up to date, as we update our databases every day.

Go to all conjunctions

Associated space launch

Dedicated mission for a single communication microsatellite that will enable specific frequencies to support future services from orbit. The launch will be Rocket Lab’s 18th Electron mission.

GMS-T was lifted into orbit during the mission ‘Electron | Another One Leaves The Crust (GMS-T)’, on board a Electron space rocket.

The launch took place on Jan. 20, 2021, 7:26 a.m. from Rocket Lab Launch Complex 1A.

For more information about the launch, click the button.

Launch to space Electron | Another One Leaves The Crust (GMS-T)
Electron | Another One Leaves The Crust (GMS-T)

Agency: N/A

Status: Launch Successful

Launch date: Jan. 20, 2021, 7:26 a.m. UTC

Rocket: Electron

Launch pad: Rocket Lab Launch Complex 1A

Location: Rocket Lab Launch Complex 1, Mahia Peninsula, New Zealand

...

Latest news about this satellite

News about space launch
Another One Leaves The Crust begins busy year for Rocket Lab

Rocket Lab started its busiest year with the dedicated launch of a micro-satellite aboard their Electron rocket for OHB Group on Wednesday.

News about space launch
Rocket Lab launches secretive communications satellite for OHB

ocket Lab successfully launched a communications satellite for German company OHB Group Jan. 20 in the first Electron mission of the year.

News about space launch
Rocket Lab launches communications satellite for OHB

A mysterious small satellite built by the German company OHB, purported to be a pathfinder for a Chinese-owned communications constellation, took off from New Zealand Wednesday and soared into orbit on top of a Rocket Lab Electron launcher.


Newsletter sign-up

Weekly statistics, charts and insights to help you stay on top of the space industry.